| time (UTC) | temp F | wind direction | speed MPH | gust MPH | rain 1hr in | rain 24hr in | rain mn in | humidity % | barometer mb |
| 20260508064417 | 69 | 0.0 | 1.0 | 0.00 | 0.00 | 0.00 | 40 | 1014.5 | |
| 20260508063417 | 70 | 0 | 1.0 | 2.0 | 0.00 | 0.00 | 0.00 | 40 | 1014.4 |
| 20260508062416 | 70 | 0 | 1.0 | 1.0 | 0.00 | 0.00 | 0.00 | 38 | 1014.3 |
| 20260508061422 | 71 | 0 | 1.0 | 2.0 | 0.00 | 0.00 | 0.00 | 39 | 1014.3 |
| 20260508060418 | 72 | 0 | 1.0 | 3.0 | 0.00 | 0.00 | 0.00 | 40 | 1014.3 |
| 20260508055424 | 72 | 0.0 | 1.0 | 0.00 | 0.00 | 0.00 | 39 | 1014.4 | |
| 20260508054430 | 73 | 23 | 1.0 | 2.0 | 0.00 | 0.00 | 0.00 | 37 | 1014.2 |
| 20260508053419 | 74 | 23 | 1.0 | 2.0 | 0.00 | 0.00 | 0.00 | 36 | 1014.3 |
| 20260508052444 | 74 | 23 | 1.0 | 1.0 | 0.00 | 0.00 | 0.00 | 33 | 1014.3 |
| 20260508051417 | 73 | 23 | 2.0 | 3.0 | 0.00 | 0.00 | 0.00 | 32 | 1014.4 |
| 20260508050418 | 73 | 23 | 2.0 | 4.0 | 0.00 | 0.00 | 0.00 | 29 | 1014.7 |
| 20260508045444 | 74 | 23 | 4.0 | 6.0 | 0.00 | 0.00 | 0.00 | 31 | 1014.6 |
| 20260508044424 | 74 | 0 | 1.0 | 4.0 | 0.00 | 0.00 | 0.00 | 31 | 1014.5 |
| 20260508043419 | 74 | 0 | 2.0 | 3.0 | 0.00 | 0.00 | 0.00 | 30 | 1014.5 |
| 20260508042418 | 73 | 293 | 2.0 | 3.0 | 0.00 | 0.00 | 0.00 | 33 | 1014.6 |
| 20260508041418 | 72 | 23 | 2.0 | 3.0 | 0.00 | 0.00 | 0.00 | 40 | 1014.6 |
| 20260508040418 | 72 | 23 | 4.0 | 5.0 | 0.00 | 0.00 | 0.00 | 38 | 1014.6 |
| 20260508035439 | 72 | 68 | 4.0 | 5.0 | 0.00 | 0.00 | 0.00 | 39 | 1014.8 |
| 20260508034418 | 72 | 45 | 3.0 | 4.0 | 0.00 | 0.00 | 0.00 | 34 | 1015.0 |
| 20260508033418 | 71 | 113 | 2.0 | 3.0 | 0.00 | 0.00 | 0.00 | 38 | 1015.1 |
| 20260508032421 | 71 | 203 | 3.0 | 5.0 | 0.00 | 0.00 | 0.00 | 39 | 1015.2 |
| 20260508031419 | 71 | 23 | 1.0 | 1.0 | 0.00 | 0.00 | 0.00 | 38 | 1015.4 |
| 20260508030444 | 71 | 203 | 3.0 | 4.0 | 0.00 | 0.00 | 0.00 | 41 | 1015.6 |
| 20260508025429 | 72 | 293 | 2.0 | 4.0 | 0.00 | 0.00 | 0.00 | 40 | 1015.7 |
| 20260508024438 | 70 | 158 | 1.0 | 2.0 | 0.00 | 0.00 | 0.00 | 43 | 1015.8 |
| 20260508023419 | 69 | 180 | 2.0 | 3.0 | 0.00 | 0.00 | 0.00 | 45 | 1015.9 |
| 20260508022418 | 70 | 45 | 2.0 | 4.0 | 0.00 | 0.00 | 0.00 | 46 | 1016.1 |
| 20260508021419 | 69 | 68 | 4.0 | 7.0 | 0.00 | 0.00 | 0.00 | 43 | 1016.4 |
| 20260508020418 | 69 | 0 | 4.0 | 6.0 | 0.00 | 0.00 | 0.00 | 43 | 1016.6 |
| 20260508015419 | 68 | 0 | 3.0 | 4.0 | 0.00 | 0.00 | 0.00 | 47 | 1016.6 |
| 20260508014443 | 68 | 68 | 2.0 | 3.0 | 0.00 | 0.00 | 0.00 | 44 | 1016.8 |
| 20260508013439 | 68 | 68 | 3.0 | 3.0 | 0.00 | 0.00 | 0.00 | 43 | 1017.0 |
| 20260508012418 | 67 | 113 | 2.0 | 5.0 | 0.00 | 0.00 | 0.00 | 43 | 1017.2 |
| 20260508011439 | 68 | 68 | 5.0 | 7.0 | 0.00 | 0.00 | 0.00 | 44 | 1017.4 |
| 20260508010418 | 67 | 45 | 1.0 | 2.0 | 0.00 | 0.00 | 0.00 | 44 | 1017.4 |
| 20260508005418 | 67 | 23 | 3.0 | 4.0 | 0.00 | 0.00 | 0.00 | 45 | 1017.5 |
| 20260508004418 | 66 | 0.0 | 1.0 | 0.00 | 0.00 | 0.00 | 48 | 1017.8 | |
| 20260508003444 | 65 | 0 | 4.0 | 6.0 | 0.00 | 0.00 | 0.00 | 48 | 1017.8 |
| 20260508002423 | 65 | 0 | 2.0 | 4.0 | 0.00 | 0.00 | 0.00 | 48 | 1018.0 |
| 20260508001418 | 65 | 45 | 2.0 | 3.0 | 0.00 | 0.00 | 0.00 | 48 | 1018.1 |
| 20260508000419 | 65 | 68 | 2.0 | 3.0 | 0.00 | 0.00 | 0.00 | 48 | 1018.1 |
| 20260507235419 | 65 | 45 | 3.0 | 4.0 | 0.00 | 0.00 | 0.00 | 47 | 1018.3 |
| 20260507234417 | 66 | 45 | 1.0 | 2.0 | 0.00 | 0.00 | 0.00 | 48 | 1018.2 |
| 20260507233419 | 65 | 45 | 1.0 | 2.0 | 0.00 | 0.00 | 0.00 | 46 | 1018.2 |
| 20260507232417 | 65 | 68 | 1.0 | 2.0 | 0.00 | 0.00 | 0.00 | 45 | 1018.2 |
| 20260507231418 | 65 | 90 | 2.0 | 3.0 | 0.00 | 0.00 | 0.00 | 47 | 1018.4 |
| 20260507230419 | 65 | 113 | 1.0 | 2.0 | 0.00 | 0.00 | 0.00 | 45 | 1018.4 |
| 20260507225418 | 64 | 113 | 1.0 | 2.0 | 0.00 | 0.00 | 0.00 | 49 | 1018.3 |
| 20260507224418 | 64 | 135 | 1.0 | 3.0 | 0.00 | 0.00 | 0.00 | 48 | 1018.3 |
| 20260507223418 | 63 | 203 | 1.0 | 1.0 | 0.00 | 0.00 | 0.00 | 51 | 1018.1 |
| 20260507222427 | 62 | 225 | 1.0 | 2.0 | 0.00 | 0.00 | 0.00 | 58 | 1018.0 |
| 20260507221418 | 61 | 0.0 | 1.0 | 0.00 | 0.00 | 0.00 | 60 | 1018.0 | |
| 20260507220418 | 61 | 203 | 1.0 | 2.0 | 0.00 | 0.00 | 0.00 | 58 | 1018.0 |
| 20260507215438 | 60 | 180 | 1.0 | 2.0 | 0.00 | 0.00 | 0.00 | 59 | 1017.9 |
| 20260507214437 | 60 | 0.0 | 1.0 | 0.00 | 0.00 | 0.00 | 61 | 1017.8 | |
| 20260507213418 | 59 | 180 | 1.0 | 2.0 | 0.00 | 0.00 | 0.00 | 63 | 1017.6 |
| 20260507212437 | 58 | 0.0 | 1.0 | 0.00 | 0.00 | 0.00 | 65 | 1017.6 | |
| 20260507211418 | 57 | 180 | 2.0 | 3.0 | 0.00 | 0.00 | 0.00 | 66 | 1017.4 |
| 20260507210443 | 56 | 180 | 1.0 | 1.0 | 0.00 | 0.00 | 0.00 | 69 | 1017.4 |
| 20260507205418 | 54 | 0.0 | 1.0 | 0.00 | 0.00 | 0.00 | 72 | 1017.5 | |
| 20260507204417 | 53 | 0.0 | 0.0 | 0.00 | 0.00 | 0.00 | 76 | 1017.4 | |
| 20260507203418 | 53 | 0.0 | 1.0 | 0.00 | 0.00 | 0.00 | 76 | 1017.2 | |
| 20260507202417 | 53 | 0.0 | 1.0 | 0.00 | 0.00 | 0.00 | 75 | 1017.0 | |
| 20260507201418 | 53 | 0.0 | 1.0 | 0.00 | 0.00 | 0.00 | 74 | 1016.9 | |
| 20260507200419 | 54 | 0.0 | 0.0 | 0.00 | 0.00 | 0.00 | 73 | 1016.8 | |
| 20260507195417 | 54 | 180 | 1.0 | 1.0 | 0.00 | 0.00 | 0.00 | 73 | 1016.7 |
| 20260507194442 | 54 | 180 | 1.0 | 1.0 | 0.00 | 0.00 | 0.00 | 74 | 1016.6 |
| 20260507193439 | 54 | 0.0 | 1.0 | 0.00 | 0.00 | 0.00 | 74 | 1016.5 | |
| 20260507192417 | 53 | 225 | 1.0 | 1.0 | 0.00 | 0.00 | 0.00 | 75 | 1016.3 |
| 20260507191428 | 53 | 0.0 | 1.0 | 0.00 | 0.00 | 0.00 | 76 | 1016.2 | |
| 20260507190419 | 54 | 0.0 | 1.0 | 0.00 | 0.01 | 0.00 | 76 | 1016.0 | |
| 20260507185417 | 54 | 0.0 | 0.0 | 0.00 | 0.01 | 0.00 | 76 | 1016.0 | |
| 20260507184422 | 55 | 0.0 | 0.0 | 0.00 | 0.01 | 0.00 | 76 | 1015.7 | |
| 20260507183423 | 55 | 0.0 | 1.0 | 0.00 | 0.01 | 0.00 | 75 | 1015.7 | |
| 20260507182417 | 56 | 0.0 | 1.0 | 0.00 | 0.01 | 0.00 | 73 | 1015.6 | |
| 20260507181438 | 57 | 0.0 | 1.0 | 0.00 | 0.01 | 0.00 | 72 | 1015.5 | |
| 20260507180422 | 57 | 225 | 1.0 | 1.0 | 0.00 | 0.01 | 0.00 | 69 | 1015.4 |
| 20260507175417 | 58 | 225 | 1.0 | 1.0 | 0.00 | 0.01 | 0.00 | 68 | 1015.2 |
| 20260507174422 | 59 | 0.0 | 1.0 | 0.00 | 0.01 | 0.00 | 66 | 1015.2 | |
| 20260507173437 | 59 | 225 | 1.0 | 2.0 | 0.00 | 0.01 | 0.00 | 65 | 1015.0 |
| 20260507172417 | 60 | 203 | 1.0 | 3.0 | 0.00 | 0.01 | 0.00 | 64 | 1015.0 |
| 20260507171417 | 60 | 203 | 2.0 | 3.0 | 0.00 | 0.01 | 0.00 | 63 | 1015.0 |
| 20260507170417 | 60 | 203 | 3.0 | 6.0 | 0.00 | 0.01 | 0.00 | 64 | 1014.8 |
| 20260507165417 | 60 | 203 | 2.0 | 3.0 | 0.00 | 0.01 | 0.00 | 64 | 1014.9 |
| 20260507164417 | 60 | 225 | 2.0 | 4.0 | 0.00 | 0.01 | 0.00 | 64 | 1014.9 |
| 20260507163417 | 60 | 203 | 2.0 | 4.0 | 0.00 | 0.01 | 0.00 | 64 | 1015.0 |
| 20260507162427 | 60 | 225 | 2.0 | 2.0 | 0.00 | 0.01 | 0.00 | 64 | 1015.0 |
| 20260507161417 | 61 | 203 | 1.0 | 2.0 | 0.00 | 0.01 | 0.00 | 63 | 1014.9 |
| 20260507160417 | 61 | 203 | 2.0 | 4.0 | 0.00 | 0.01 | 0.00 | 62 | 1014.9 |
| 20260507155438 | 61 | 203 | 2.0 | 4.0 | 0.00 | 0.01 | 0.00 | 62 | 1015.0 |
| 20260507154417 | 62 | 225 | 4.0 | 6.0 | 0.00 | 0.01 | 0.00 | 61 | 1014.9 |
| 20260507153417 | 62 | 203 | 1.0 | 1.0 | 0.00 | 0.01 | 0.00 | 60 | 1014.8 |
| 20260507152416 | 63 | 293 | 2.0 | 4.0 | 0.00 | 0.01 | 0.00 | 59 | 1014.7 |
| 20260507151417 | 63 | 225 | 3.0 | 5.0 | 0.00 | 0.01 | 0.00 | 59 | 1014.6 |
| 20260507150417 | 63 | 203 | 4.0 | 8.0 | 0.00 | 0.01 | 0.00 | 59 | 1014.5 |
| 20260507145422 | 63 | 225 | 4.0 | 7.0 | 0.00 | 0.01 | 0.00 | 58 | 1014.7 |
| 20260507144502 | 63 | 203 | 2.0 | 4.0 | 0.00 | 0.01 | 0.00 | 58 | 1014.6 |
| 20260507143417 | 63 | 203 | 4.0 | 8.0 | 0.00 | 0.01 | 0.00 | 57 | 1014.6 |
| 20260507142417 | 64 | 203 | 4.0 | 7.0 | 0.00 | 0.01 | 0.00 | 57 | 1014.5 |
| 20260507141417 | 64 | 180 | 3.0 | 3.0 | 0.00 | 0.01 | 0.00 | 57 | 1014.5 |
| 20260507140417 | 64 | 203 | 2.0 | 3.0 | 0.00 | 0.01 | 0.00 | 56 | 1014.5 |
| 20260507135418 | 64 | 180 | 2.0 | 3.0 | 0.00 | 0.01 | 0.01 | 55 | 1014.3 |
| 20260507134418 | 64 | 225 | 2.0 | 4.0 | 0.00 | 0.01 | 0.01 | 55 | 1014.5 |
| 20260507133418 | 65 | 225 | 1.0 | 3.0 | 0.00 | 0.01 | 0.01 | 55 | 1014.4 |
| 20260507132428 | 65 | 203 | 3.0 | 4.0 | 0.00 | 0.01 | 0.01 | 53 | 1014.6 |
| 20260507131418 | 66 | 225 | 1.0 | 3.0 | 0.00 | 0.01 | 0.01 | 52 | 1014.7 |
| 20260507130417 | 66 | 203 | 1.0 | 3.0 | 0.00 | 0.01 | 0.01 | 51 | 1014.8 |
| 20260507125428 | 66 | 315 | 1.0 | 2.0 | 0.00 | 0.01 | 0.01 | 50 | 1014.9 |
| 20260507124438 | 67 | 180 | 1.0 | 2.0 | 0.00 | 0.01 | 0.01 | 49 | 1014.9 |
| 20260507123418 | 67 | 225 | 1.0 | 2.0 | 0.00 | 0.01 | 0.01 | 48 | 1014.9 |
| 20260507122417 | 68 | 225 | 2.0 | 4.0 | 0.00 | 0.01 | 0.01 | 47 | 1014.8 |
| 20260507121423 | 68 | 225 | 3.0 | 4.0 | 0.00 | 0.01 | 0.01 | 48 | 1014.8 |
| 20260507120438 | 68 | 203 | 1.0 | 4.0 | 0.00 | 0.01 | 0.01 | 47 | 1014.8 |
| 20260507115418 | 68 | 196 | 4.0 | 0.0 | 0.00 | 0.01 | 0.01 | 46 | 1014.5 |
| 20260507114437 | 68 | 203 | 2.0 | 4.0 | 0.00 | 0.01 | 0.01 | 49 | 1014.4 |
| 20260507113418 | 68 | 203 | 1.0 | 2.0 | 0.00 | 0.01 | 0.01 | 48 | 1014.3 |
| 20260507112417 | 68 | 0.0 | 1.0 | 0.00 | 0.01 | 0.01 | 49 | 1014.3 | |
| 20260507111439 | 68 | 225 | 1.0 | 2.0 | 0.00 | 0.01 | 0.01 | 46 | 1014.0 |
| 20260507110422 | 67 | 0 | 2.0 | 4.0 | 0.00 | 0.01 | 0.01 | 49 | 1013.8 |
| 20260507105418 | 67 | 0.0 | 1.0 | 0.00 | 0.01 | 0.01 | 53 | 1013.7 | |
| 20260507104417 | 66 | 0.0 | 0.0 | 0.00 | 0.01 | 0.01 | 58 | 1013.5 | |
| 20260507103422 | 66 | 23 | 2.0 | 2.0 | 0.00 | 0.01 | 0.01 | 56 | 1013.4 |
| 20260507102417 | 66 | 23 | 1.0 | 2.0 | 0.00 | 0.01 | 0.01 | 62 | 1013.4 |
| 20260507101418 | 67 | 0.0 | 1.0 | 0.00 | 0.01 | 0.01 | 60 | 1013.3 | |
| 20260507100417 | 68 | 23 | 1.0 | 2.0 | 0.00 | 0.01 | 0.01 | 55 | 1013.2 |
| 20260507095438 | 69 | 0.0 | 1.0 | 0.00 | 0.01 | 0.01 | 50 | 1013.1 | |
| 20260507094437 | 69 | 0.0 | 1.0 | 0.00 | 0.01 | 0.01 | 53 | 1012.9 | |
| 20260507093418 | 70 | 113 | 1.0 | 2.0 | 0.00 | 0.01 | 0.01 | 49 | 1012.8 |
| 20260507092418 | 71 | 0.0 | 0.0 | 0.00 | 0.01 | 0.01 | 48 | 1012.8 | |
| 20260507091417 | 72 | 0.0 | 1.0 | 0.00 | 0.01 | 0.01 | 47 | 1012.8 | |
| 20260507090437 | 72 | 113 | 2.0 | 3.0 | 0.00 | 0.01 | 0.01 | 44 | 1012.5 |
| 20260507085417 | 73 | 0.0 | 1.0 | 0.00 | 0.01 | 0.01 | 44 | 1012.5 | |
| 20260507084417 | 73 | 0.0 | 1.0 | 0.00 | 0.01 | 0.01 | 43 | 1012.4 | |
| 20260507083437 | 74 | 0 | 4.0 | 8.0 | 0.00 | 0.01 | 0.01 | 41 | 1012.2 |
| 20260507082437 | 74 | 225 | 2.0 | 3.0 | 0.00 | 0.01 | 0.01 | 41 | 1012.2 |
| 20260507081417 | 74 | 315 | 2.0 | 5.0 | 0.00 | 0.01 | 0.01 | 40 | 1012.0 |
| 20260507080417 | 75 | 270 | 2.0 | 4.0 | 0.00 | 0.01 | 0.01 | 41 | 1011.9 |
| 20260507075417 | 75 | 225 | 3.0 | 4.0 | 0.00 | 0.01 | 0.01 | 40 | 1011.7 |
| 20260507074417 | 75 | 270 | 1.0 | 3.0 | 0.00 | 0.01 | 0.01 | 41 | 1011.5 |
| 20260507073423 | 76 | 293 | 1.0 | 1.0 | 0.00 | 0.01 | 0.01 | 42 | 1011.4 |
| 20260507072437 | 76 | 225 | 3.0 | 5.0 | 0.00 | 0.01 | 0.01 | 42 | 1011.2 |
| 20260507071417 | 76 | 338 | 3.0 | 10.0 | 0.00 | 0.01 | 0.01 | 42 | 1011.2 |
| 20260507070417 | 76 | 315 | 3.0 | 8.0 | 0.00 | 0.01 | 0.01 | 47 | 1011.1 |